Regional Weather Roundup
Issued by NWS Sioux Falls, SD

Home | Current Version | Previous Version | Graphics & Text | Print | Product List | Glossary On
Versions: 1 2 3 4 5 6 7 8 9 10 11 12 13 14 15 16 17 18 19 20 21 22 23 24 25 26 27 28 29 30 31 32 33 34 35 36 37 38 39 40 41 42 43 44 45 46 47 48 49 50
000
ASUS43 KFSD 161410
RWRFSD

WEATHER ROUNDUP FOR SE SOUTH DAKOTA/SW MINNESOTA/NW IOWA
NATIONAL WEATHER SERVICE SIOUX FALLS SD
900 AM CDT TUE SEP 16 2014

NOTE: "FAIR" INDICATES FEW OR NO CLOUDS BELOW 12,000 FEET WITH NO
SIGNIFICANT WEATHER AND OR OBSTRUCTIONS TO VISIBILITY.


SDZ038>040-050-052>070-161500-
SOUTHEAST SOUTH DAKOTA

CITY           SKY/WX    TMP DP  RH WIND       PRES   REMARKS
CHAMBERLAIN    SUNNY     51  45  80 CALM      30.07S
HURON          SUNNY     49  42  77 S12G20    30.10F
MADISON        FAIR      48  48 100 S8        30.15F
MITCHELL       SUNNY     49  45  86 S10       30.13F
SIOUX FALLS    SUNNY     51  44  77 S9        30.17F
WINNER         FAIR      55  43  63 S20G29    30.04F
YANKTON        SUNNY     48  45  87 S5        30.17F
$$

MNZ071-072-080-081-089-090-097-098-161500-
SOUTHWEST MINNESOTA

CITY           SKY/WX    TMP DP  RH WIND       PRES   REMARKS
FAIRMONT       SUNNY     52  41  66 SW6       30.20F
JACKSON        SUNNY     50  43  76 SW6       30.20S
LUVERNE        SUNNY     43  41  93 S3        30.19F
MARSHALL       SUNNY     52  43  71 SW10      30.15F
MONTEVIDEO     SUNNY     52  43  71 SW6       30.16F
PIPESTONE      SUNNY     48  45  87 SW8       30.16F
REDWOOD FALLS  SUNNY     49  43  80 SW5       30.17F
TRACY          SUNNY     51  44  78 SW8       30.17F
WINDOM         SUNNY     48  45  87 SW3       30.19F
WORTHINGTON    SUNNY     48  43  81 SW7       30.20S
$$

IAZ001>003-012>014-020>022-031-032-NEZ013-014-SDZ071-161500-
NORTHWEST IOWA

CITY           SKY/WX    TMP DP  RH WIND       PRES   REMARKS
CHEROKEE       SUNNY     43  43 100 CALM      30.22F
DENISON        SUNNY     45  45 100 CALM      30.21F
ESTHERVILLE    SUNNY     49  44  83 SW5       30.20F
LE MARS        SUNNY     45  45 100 CALM      30.21F
ORANGE CITY    SUNNY     46  43  87 S6        30.19F
SHELDON        SUNNY     46  45  93 S3        30.19F
SIOUX CITY     SUNNY     46  45  96 VRB3      30.22F
SPENCER        SUNNY     48  43  82 SW3       30.21F
STORM LAKE     SUNNY     48  48 100 SW5       30.21F
$$

ABBREVIATIONS USED IN REMARKS
   TC - TEMPERATURE IN CELSIUS
  WCI - WIND CHILL INDEX
   HX - HEAT INDEX
  VSB - VISIBILITY



USA.gov is the U.S. government's official web portal to all federal, state and local government web resources and services.